Погода в Турку

Финляндия     60°27′05″N   22°16′00″E
темп.,
°C
ветер,
м/с
пор.,
м/с
влажн.,
%
обл.,
%
осадки,
мм/ч
давл.,
гПа
погр.,
м
7 мая, пт
пт700:00+4всв1297100 0.1 99667
03:00+4юз1196100 0.1 99650
06:00+4ссз1194100 0.1 99746
09:00+5зсз0189100 0.2 998520
12:00+5ссз1291100 0.6 999551
15:00+3с2298100 1.9 1000472
18:00+3ссз2699100 1.3 1001439
21:00+3ссз368991 1.6 1003438
8 мая, сб
сб800:000сз269198 0.0 1004175
03:00−1ссз37926 0.0 1005185
06:00−1ссз23875 0.0 100691
09:00+4з12635 0.0 1007383
12:00+6юз46608 0.0 1008744
15:00+7зюз46652 0.1 1009819
18:00+8з46480 0.1 10101210
21:00+4зюз36720 0.1 1011172
9 мая, вс
вс900:00+3юз25866 0.0 1012109
03:00+4ю2686100 0.0 1012143
06:00+4ю4108983 0.1 1011379
09:00+6ююз4785100 0.2 1012354
12:00+7юз5972100 0.0 1013625
15:00+8ююз5965100 0.0 1014662
18:00+6ююз5979100 0.0 1014692
21:00+5юв71394100 1.5 10121018
10 мая, пн
пн1000:00+6ююв51097100 0.9 1010495
03:00+6ююз499598 1.6 1011305
06:00+6ю369698 0.0 1012180
09:00+7ю3794100 0.2 1014220
12:00+9ю51188100 0.1 1015304
15:00+10ю61578100 0.1 1015406
18:00+11ю6197216 0.0 1016547
21:00+10ю61877100 0.0 1017528
11 мая, вт
вт1100:00+10ю5178136 0.0 1017458
03:00+10ю61685100 0.0 1017432
06:00+10ююв61587100 0.0 1016434
09:00+11ю61479100 0.0 1017497
12:00+13ю61173100 0.0 1018523
15:00+14ю6116799 0.0 1019614
18:00+16ююв48615 0.0 1018605
21:00+13юв38751 0.0 1018225